NOAA 16 DEB

Satellite information

Favourite Embed

Satellite Type and Status

DEBRISIN ORBIT

Key statistics

Satellite NOAA 16 DEB at a glance.

Uptime

9215

Days in orbit

Revolutions

≈ 14.4

Per day

Orbit

SSO

Sun Synchronous Orbit

Inclination

98.8

Latest

Satellite identification and parameters

Extended collection of information and parameters for NOAA 16 DEB.

Object identification

Identified? True

Debris? True

Object name: NOAA 16 DEB

International designator: 2000-055DX

Object number (NORAD): 41218

Object ID (CCSDS): 41218

Country: UNITED STATES OF AMERICA (US)

Current information (Y/N): Y

RCS size: SMALL

Orbital parameters

Period: 99.836 minutes

Inclination: 98.7864 deg

SMA: 7128.81 km

Apoapsis: 778.12 km

Periapsis: 723.23 km

RAAN: 90.8634 deg

Eccentricy: 0.00384984

Argument of periapsis: 124.8435 deg

Mean anomaly: 235.6384 deg

Mean motion: 14.42371708 rev/day

Mean motion (dot): 0.00020678 rev/day2

B* drag term: 0.0061954183 1/REarth

Two-line elements (TLE)

Creation date: Dec. 11, 2025, 10:54 a.m.

Reference frame: TEME

Reference center: EARTH

Epoch: Dec. 11, 2025, 6:04 a.m. UTC

TLE line 0: 0 NOAA 16 DEB

TLE line 1: 1 41218U 00055DX 25345.25297564 .00020678 00000-0 61954-2 0 9995

TLE line 2: 2 41218 98.7864 90.8634 0038498 124.8435 235.6384 14.42371708518180

Live tracking on map

Real-time ground track for satellite NOAA 16 DEB.

In-orbit conjunctions

A list of the most updated potential collisions computed for object NOAA 16 DEB.

Target Orbit TCA Probability of collision Miss distance Type
SL-8 DEB LEO 2025-11-20 01:36:28 0.0001354408 82.0 (m) DEBRIS
CZ-6A DEB LEO 2025-02-02 17:17:51 0.0001032871 413.0 (m) DEBRIS
CZ-6A DEB LEO 2024-11-30 23:50:32 0.0004022535 392.0 (m) DEBRIS
METEOR 2-7 DEB LEO 2024-11-11 23:54:13 0.0007847789 111.0 (m) DEBRIS
COSMOS 1275 DEB LEO 2024-09-28 01:11:52 0.0003488373 812.0 (m) DEBRIS

Associated space launch

The NOAA K, L and M POES satellites begin the fifth generation of improved environmental monitoring in support of NOAA missions. The instrument payload has significant improvements and additions/deletions. The instrument changes have effected the spacecraft subsystems and data formats.

NOAA 16 DEB was lifted into orbit during the mission ‘Titan II SLV | NOAA 16’, on board a Titan II SLV space rocket.

The launch took place on Sept. 21, 2000, 10:22 a.m. from Space Launch Complex 4W.

For more information about the launch, click the button.

Launch to space Titan II SLV | NOAA 16
Titan II SLV | NOAA 16

Agency: N/A

Status: Launch Successful

Launch date: Sept. 21, 2000, 10:22 a.m. UTC

Rocket: Titan II SLV

Launch pad: Space Launch Complex 4W

Location: Vandenberg SFB, CA, USA

...

Latest news about this satellite

There are no fresh news available about this satellite. Check back as we update our databases every day.


Newsletter sign-up

Weekly statistics, charts and insights to help you stay on top of the space industry.